Regional Weather Roundup
Issued by NWS Charleston, SC

Current Version | Previous Version | Graphics & Text | Print | Product List | Glossary On
Versions: 1 2 3 4 5 6 7 8 9 10 11 12 13 14 15 16 17 18 19 20 21 22 23 24 25 26 27 28 29 30 31 32 33 34 35 36 37 38 39 40 41 42 43 44 45 46 47 48 49 50
000 ASUS42 KCHS 231427 RWRCHS Regional Weather Roundup National Weather Service Charleston SC 1000 AM EDT MON APR 23 2018 NOTE: "fair" indicates few or no clouds below 12,000 feet with no significant weather and/or obstructions to visibility. Not all stations are quality controlled. Use data with caution, especially dewpoint observations. SCZ027-030-031-034>040-042>050-231500- ...Southeast South Carolina... CITY SKY/WX TMP DP RH WIND PRES REMARKS N Charleston LGT RAIN 64 61 90 E21 30.14F FOG Waterfront Prk N/A 64 62 93 E16 30.01R Mount Pleasant LGT RAIN 63 63 100 E8G18 30.15F Johns Island LGT RAIN 64 63 94 E17G23 30.12F Pinopolis N/A N/A N/A N/A SE6 30.08R Moncks Corner RAIN 61 59 94 E8 30.15F Summerville RAIN 63 61 94 E8G20 30.14F Beaufort MCAS RAIN 66 65 96 E17G25 30.07S FOG Beaufort Arpt RAIN 64 63 94 E16G25 30.07S Hilton Head Is RAIN 66 64 94 E12G20 30.08S Walterboro DRIZZLE 63 61 94 E13G26 30.11F Allendale PTSUNNY 63 63 100 SE9G17 30.07S FOG ...Southern Midlands and Pee Dee... CITY SKY/WX TMP DP RH WIND PRES REMARKS Georgetown RAIN 63 61 94 E13G18 30.21R Kingstree RAIN 59 59 100 E3 30.20R Orangeburg RAIN 62 59 90 E10G21 30.12F FOG Barnwell DRIZZLE 63 61 94 E17 30.07F Aiken RAIN 57 57 100 E12G21 30.13S Manning LGT RAIN 55 55 100 E7 30.16F Columbia HVY RAIN 60 60 100 E17 30.13S FOG Sumter LGT RAIN 59 57 94 E14G21 30.15S Florence LGT RAIN 61 55 81 E10 30.23R Myrtle Beach CLOUDY 64 58 80 E16 30.24R N Myrtle Beach PTSUNNY 65 57 75 E13G23 30.23R $$ GAZ063-065-086>088-099>101-113>116-118-119-134>141-150-231500- ...Southeast Georgia... CITY SKY/WX TMP DP RH WIND PRES REMARKS Savannah Arpt HVY RAIN 67 66 97 SE20G26 30.05F VSB 1/2 Hunter AAF RAIN 68 64 88 NE16G22 30.00 FOG Fort Stewart LGT RAIN 68 68 100 E9 30.02S FOG Statesboro PTSUNNY 67 66 94 E8 30.04F Sylvania CLOUDY 64 64 100 E12 30.06F Claxton LGT RAIN 68 66 94 CALM 30.05R ...CSRA, Central and far Southeast Georgia... CITY SKY/WX TMP DP RH WIND PRES REMARKS Thomson HVY RAIN 60 59 96 NW5 30.13R FOG Augusta-Bush LGT RAIN 62 60 93 SE8 30.07S Augusta-Daniel RAIN 62 60 93 SE12 30.08S FOG Swainsboro LGT RAIN 68 64 88 S5 30.05R Vidalia CLOUDY 68 66 94 SE5 30.03R Eastman CLOUDY 71 61 71 SE9 30.02F Hazlehurst CLOUDY 70 66 87 SE6 30.00F Alma CLOUDY 71 68 90 S6 30.00F Waycross CLOUDY 72 69 90 S5 30.01F Jesup CLOUDY 70 66 88 CALM 30.03 Baxley CLOUDY 68 68 100 SE5 30.01F Brunswick CLOUDY 70 66 88 S7 30.04S Saint Simons CLOUDY 69 69 100 S7 30.03S FOG $$ SCZ027-028-034-036>038-045-046-048>050-GAZ119-141-231500- ...Lake and Supplemental Coastal Observations... STATION/POSITION TIME TEMP WIND PRES WAVE SWELL AIR SEA DIR/SP/G HT/PER HT/PER/DIR (UTC) (F) (DEG/KT/KT) (MB) (FT/S) (FT/S/D) Winyah Bay 1345 64 90/ 13 1023.0R Lake Murray 1320 58 70/ 12/ 22 1019.6 ACE Basin NERRS 1345 65 350/ 6 N/A Fort Pulaski 1400 66 65 90/ 20/ 25 1017.1 Sapelo Island 1400 69 180/ 8 1017.0 $$ ANZ835-935-AMZ111-154-330-350-352-354-370-450-454-472-231500- ...C-MAN and Buoy Observations... STATION/POSITION TIME TEMP WIND PRES WAVE SWELL AIR SEA DIR/SP/G HT/PER HT/PER/DIR (UTC) (F) (DEG/KT/KT) (MB) (FT/S) (FT/S/D) Buoy 41004 1410 69 67 120/ 21/ 27 1021.3 Buoy 41008 1350 68 65 130/ 16/ 23 1016.8R 8/ 8 7/100/ 8 Folly Beach CMAN 1400 65 90/ 20/ 23 1020.9F Capers Nearshore 1408 65 63 100/ 16/ 21 1020.1R Fripp Nearshore 1408 65 64 100/ 16/ 27 1017.7F STATION/POSITION TIME TEMP WIND PRES WAVE SWELL AIR SEA DIR/SP/G HT/PER HT/PER/DIR (UTC) (F) (DEG/KT/KT) (MB) (FT/S) (FT/S/D) 5E St. Marys GA 1400 66 N/A 7/ 8 Frying Pan Buoy 1410 69 70 110/ 25/ 31 1023.7 Buoy 41025 1410 66 71 100/ 19/ 25 1028.7 Cape Lookout NC 1400 100/ 17/ 19 1027.2R Buoy 41002 1410 69 72 110/ 17/ 21 1025.3 Buoy 41010 1410 74 75 110/ 25/ 31 1019.1 St Augustine FL 1400 69 68 170/ 4/ 4 1017.4R $$

USA.gov is the U.S. government's official web portal to all federal, state and local government web resources and services.